Regional Weather Roundup
Issued by NWS

Home | Current Version | Previous Version | Graphics & Text | Print | Product List | Glossary On
Versions: 1 2 3 4 5 6 7 8 9 10 11 12 13 14 15 16 17 18 19 20 21 22 23 24 25 26 27 28 29 30 31 32 33 34 35 36 37 38 39 40 41 42 43 44 45 46 47 48 49 50
000
ASUS44 KMEG 151410
RWRTN
TENNESSEE HOURLY STATE WEATHER ROUNDUP
NATIONAL WEATHER SERVICE MEMPHIS TN
800 AM CST FRI DEC 15 2017

TNZ002-004-019-021-049-052-054-088>092-151500-
WEST TENNESSEE

CITY           SKY/WX    TMP DP  RH WIND       PRES   REMARKS
MEMPHIS INTL   CLOUDY    31  28  89 W5        30.22R WCI  26
NWS MEMPHIS      N/A     29 N/A N/A MISG        N/A
JACKSON        PTCLDY    32  25  75 NW8       30.21R WCI  25
DYERSBURG      CLOUDY    32  25  75 CALM        N/A
SOMERVILLE     CLOUDY    30  28  93 CALM      30.20R
COVINGTON      CLOUDY    28  27  93 CALM      30.23R
UNION CITY     CLOUDY    32  25  74 CALM      30.19R
BOLIVAR        CLOUDY    32  27  80 CALM      30.20R
PARIS          CLOUDY    32  21  64 NW6       30.17R WCI  26
HUNTINGDON     CLOUDY    32  25  74 W3        30.18R
LEXINGTON      CLOUDY    32  25  74 CALM      30.18R
SELMER         CLOUDY    30  25  80 CALM      30.19R
SAVANNAH       CLOUDY    28  27  93 CALM      30.19R
$$

TNZ008-025-027-028-033-062-065-066-151500-
NORTH MIDDLE TENNESSEE

CITY           SKY/WX    TMP DP  RH WIND       PRES   REMARKS
NASHVILLE      CLOUDY    33  20  58 W9        30.16R WCI  25
PORTLAND       CLOUDY    30  19  64 NW6       30.12R WCI  24
CLARKSVILLE    CLOUDY    32  19  58 NW7       30.16R WCI  26
SMYRNA         CLOUDY    32  21  64 NW12      30.16R WCI  23
COOKEVILLE     CLOUDY    30  23  74 NW6       30.09R WCI  24
GALLATIN       CLOUDY    32  19  59 VRB3      30.17R
CROSSVILLE     CLOUDY    26  22  84 W8        30.04R FOG     WCI  18
$$

TNZ061-075-076-078-094-096-097-151500-
SOUTH MIDDLE TENNESSEE

CITY           SKY/WX    TMP DP  RH WIND       PRES   REMARKS
FAYETTEVILLE   CLOUDY    30  25  80 NW5       30.12R WCI  25
TULLAHOMA      CLOUDY    28  23  80 NW7       30.11R WCI  21
WINCHESTER     CLOUDY    28  23  80 VRB5      30.12R WCI  23
MCMINNVILLE    CLOUDY    30  23  74 NW5       30.11R WCI  25
COLUMBIA       CLOUDY    30  25  80 CALM      30.14R
SHELBYVILLE    CLOUDY    30  25  80 W3        30.14R
$$

TNZ017-018-042-046-047-151500-
NORTHEAST TENNESSEE

CITY           SKY/WX    TMP DP  RH WIND       PRES   REMARKS
TRI CITIES     CLOUDY    26  26 100 CALM      29.99S
ELIZABETHTON   PTSUNNY   27  25  93 CALM      29.99S
$$

TNZ012-013-036-069-073-074-151500-
CENTRAL EAST TENNESSEE

CITY           SKY/WX    TMP DP  RH WIND       PRES   REMARKS
KNOXVILLE      CLOUDY    31  30  96 S7        30.05R WCI  24
OAK RIDGE      CLOUDY    34  27  75 VRB3      30.06R
DOWNTOWN KNOXV CLOUDY    34  30  86 W5        30.06R WCI  30
GATLINBURG     PTSUNNY   28  27  93 CALM      30.04R
MORRISTOWN     CLOUDY    32  28  86 W3        30.01R
JACKSBORO      CLOUDY    34  23  64 VRB6      30.07R WCI  29
$$

TNZ083-085-099-151500-
SOUTHEAST TENNESSEE

CITY           SKY/WX    TMP DP  RH WIND       PRES   REMARKS
CHATTANOOGA    PTSUNNY   32  22  66 NW6       30.11R WCI  26
DAYTON         MOSUNNY   32  27  80 W5        30.09R WCI  27
$$

SKY/WX REPORTED AS FAIR MEANS FEW OR NO CLOUDS BELOW
12 THOUSAND FEET.





USA.gov is the U.S. government's official web portal to all federal, state and local government web resources and services.